Карточка аэропорта USTR

Внимание!
Информация на этой странице в стадии наполнения.
Если вы не увидели какой-то информации, или заметили неточность - пожалуйста сообщите нам!
Спасибо!
Команда RU-STAFF
Название аэропортаРощино
Название аэропорта (англ.)Roshschino
Превышение378 ft. (115.2 m.)
Координаты57°10.098', 65°19.002'
Высота перехода3000ft
Эшелон переходаQNH⩾1013hPa:FL040; QNH⩾977hPa:FL050; QNH⩽977hPa:FL060
Коды ответчика5101-5137
Зона ОрВДТюмень РПИ (USTV)
Данные METARUSTR 190200Z 32004MPS CAVOK 17/15 Q1004 R30/090065 R03/090065 TEMPO 2100 -TSRA BKN016CB
Проноз погоды (TAF)USTR 182235Z 1900/1924 34003G08MPS 6000 SCT005 BKN016CB TEMPO 1900/1904 0500 -TSRA FG VV002 FM190600 35004G12MPS 9999 BKN016CB TEMPO 1910/1924 VRB15MPS 2100 -TSRA SQ
NOTAMshow/hide NOTAM
AWOS   TABLE

Информация о ВПП

ВПП Длина ВПП (м.) Покрытие Курс ВПП Частота ILS
033003Асфальтобетон34108.3
122704Асфальтобетон121 
213003Асфальтобетон214110.7
302704Асфальтобетон301 

Диспетчерские позиции

Позывной Наименование органа УВД Частота
USTR_TWRТюмень-Старт118.200
USTR_GNDТюмень-Руление119.000
USTR_R_APPТюмень-Круг126.100



Спутниковое изображение